(704) Interamnia
ephemeris date magn radius delta ra dec elong phase
Today17 Sep 202512.73.527 AU4.473 AU11h56m-14°27'17.5°4.9°
Opposition1 May 202611.53.469 AU2.509 AU14h02m-34°52'159.0°6.0°
(704) Interamnia - 2025-09-17
astro.vanbuitenen.nl


 
-1 year
-1 month
-1 day
Now
+1 day
+1 month
+1 year

The interactive orbit chart above shows the body's path through the solar system and its position at the given date. Green and blue lines are shown perpendicular to the ecliptic plane: Green if the path is above the ecliptic plane, blue if it is below. (Left-click and drag to rotate the view; Right-click and drag to move the view; Use scroll wheel to zoom in our out.)

The orbital elements of Interamnia are:

            e (Eccentricity)                : 0.1554096
            a (Semimajor axis)              : 3.0558370
            i (Inclination)                 : 17.31555
            Ω (Longitude of ascending node) : 280.16780
            ω (Argument of perihelion)      : 94.12537
            M (Mean anomaly)                : 147.27677
            Epoch                           : 2025 May 05

            L (Longitude of perihelion)     : 194.48828
            B (Latitude of perihelion)      : 17.26927
            P (Orbital period in years)     : 5.34            
        

The light curve chart below shows the estimated development of the minor planet's magnitude.


The all-sky chart below shows the path of the minor planet over the same period as the light curve. The current position is marked yellow.





The following chart shows the path of the minor planet in the next few days. The field of view is optimized for (~10x50) binoculars and finderscopes. A more printer-friendly version of the same chart can be found below.




Ephemerides:
Date       Time       RA (2000)    DEC (2000)    delta   radius  elong  phase   PA    magn
2025-09-17 00:00 UT   11 56 46.4   -14 27 54     4.473    3.527   17.5    4.9   164   12.7 
2025-09-17 22:00 UT   11 57 54.1   -14 34 52     4.476    3.528   17.1    4.8   166   12.7 
2025-09-18 00:00 UT   11 58 00.3   -14 35 30     4.476    3.528   17.1    4.8   166   12.7 
2025-09-19 00:00 UT   11 59 14.2   -14 43 08     4.478    3.528   16.7    4.7   168   12.7 
2025-09-20 00:00 UT   12 00 28.2   -14 50 47     4.480    3.528   16.3    4.6   170   12.7 
2025-09-21 00:00 UT   12 01 42.3   -14 58 28     4.483    3.528   16.0    4.5   171   12.7 
2025-09-22 00:00 UT   12 02 56.4   -15 06 11     4.484    3.528   15.6    4.4   174   12.7 
2025-09-23 00:00 UT   12 04 10.6   -15 13 56     4.486    3.528   15.3    4.3   176   12.7 
2025-09-24 00:00 UT   12 05 24.9   -15 21 42     4.488    3.528   15.0    4.2   178   12.7 
2025-09-25 00:00 UT   12 06 39.2   -15 29 30     4.489    3.529   14.8    4.2   180   12.7 
2025-09-26 00:00 UT   12 07 53.5   -15 37 19     4.490    3.529   14.5    4.1   182   12.7 
2025-09-27 00:00 UT   12 09 07.9   -15 45 10     4.492    3.529   14.3    4.0   185   12.7 
2025-09-28 00:00 UT   12 10 22.4   -15 53 03     4.492    3.529   14.1    4.0   187   12.7 
2025-09-29 00:00 UT   12 11 36.8   -16 00 56     4.493    3.529   13.9    3.9   190   12.7 
2025-09-30 00:00 UT   12 12 51.3   -16 08 51     4.494    3.529   13.8    3.9   193   12.7 
2025-10-01 00:00 UT   12 14 05.9   -16 16 48     4.494    3.529   13.7    3.8   195   12.7 
2025-10-02 00:00 UT   12 15 20.4   -16 24 45     4.494    3.529   13.6    3.8   198   12.7 
2025-10-03 00:00 UT   12 16 35.0   -16 32 44     4.495    3.529   13.5    3.8   201   12.7 
2025-10-04 00:00 UT   12 17 49.6   -16 40 44     4.494    3.530   13.5    3.8   203   12.7 
2025-10-05 00:00 UT   12 19 04.3   -16 48 45     4.494    3.530   13.5    3.8   206   12.7 
2025-10-06 00:00 UT   12 20 18.9   -16 56 48     4.494    3.530   13.6    3.8   209   12.7 
2025-10-07 00:00 UT   12 21 33.6   -17 04 51     4.493    3.530   13.6    3.8   212   12.7 
2025-10-08 00:00 UT   12 22 48.2   -17 12 56     4.493    3.530   13.7    3.9   214   12.7 
2025-10-09 00:00 UT   12 24 02.9   -17 21 02     4.492    3.530   13.9    3.9   217   12.7 
2025-10-10 00:00 UT   12 25 17.6   -17 29 08     4.491    3.530   14.0    3.9   220   12.7 
2025-10-11 00:00 UT   12 26 32.4   -17 37 16     4.489    3.530   14.2    4.0   222   12.7 
2025-10-12 00:00 UT   12 27 47.1   -17 45 25     4.488    3.530   14.4    4.0   225   12.7 
2025-10-13 00:00 UT   12 29 01.8   -17 53 34     4.486    3.530   14.7    4.1   227   12.7 


    Terminology:
            
    delta:  distance between minor planet and earth in AU
    radius: distance between minor planet and sun in AU
    magn:   magnitude (brightness) estimate    
    ra:     right ascension in hours (24h = 360deg)
    dec:    declination in degrees
    elong:  elongation in degrees (angle sun-earth-minor planet)    
    phase:  phase angle in degrees (angle sun-minor planet-earth)        
    AU:     Astronomical Unit (mean distance between earth and sun: 149597870.7 km
    

Orbital elements provided by the MPC (Minor Planet Center).
Calculations by a modified version of AAPlus, a C# implementation of the AA+ project by PJ Naughter from the algorithms presented in the book "Astronomical Algorithms" by Jean Meeus.
NGC2000 dso catalog and star labels from VizieR as provided by the Strasbourg astronomical Data Center.
Tycho2 catalog from the ESO archive.